[[{"header":{"parameterUnit":"m.s-1","parameterCategory":1,"la1":30.2992,"la2":30.254,"lo1":-89.0895,"lo2":-89.0443,"dy":0.0025,"dx":0.0025,"nx":19,"ny":19,"refTime":"2026-05-02T03:00:00:Z","depth":0,"parameterNumber":2,"parameterNumberName":"U-component_of_WINDS"},"data":[0,0,0,-0.9384,-0.9388,-0.9604,-0.9605,-0.9898,-0.9901,0,0,0,0,0,0,0,0,0,0,0,-0.9328,-0.933,-0.9383,-0.9389,-0.9604,-0.9605,-0.9898,-0.9901,0,0,0,0,0,0,0,0,0,0,0,-0.9327,-0.933,-0.9332,-0.939,-0.9604,-0.9605,-0.9897,-0.9729,0,0,0,0,0,0,0,0,0,0,-0.9517,-0.9473,-0.9329,-0.9333,-0.9391,-0.9603,-0.9605,-0.9721,-0.974,-0.9808,0,-0.9868,0,-0.9889,-0.9922,-0.9923,0,0,0,-0.9383,-0.9457,-0.9508,-0.9333,-0.9393,-0.9603,-0.9505,-0.9731,-0.9752,-0.9833,-0.9872,-0.9883,-0.9894,-0.9924,-0.9925,-1.0333,-1.0335,0,0,-0.9372,-0.9372,-0.9493,-0.9522,-0.9486,-0.9498,-0.9512,-0.9744,-0.9788,-0.9873,-0.9889,-0.9899,-0.9926,-0.9928,-1.0331,-1.0333,0,0,0,-0.9341,-0.9364,-0.9408,-0.951,-0.9547,-0.9505,-0.952,-0.9777,-0.9791,-0.9893,-0.9902,-0.9928,-0.9931,-1.0328,-1.0332,-1.044,0,0,0,-0.9334,-0.9346,-0.9403,-0.9406,-0.9543,-0.9665,-0.9549,-0.9775,-0.9802,-0.9901,-0.9928,-0.9934,-1.0326,-1.033,-1.0432,-1.0493,0,0,0,-0.9311,-0.9343,-0.9377,-0.9405,-0.9497,-0.9661,-0.9688,-0.9781,-0.9808,-0.9923,-0.9935,-1.0324,-1.0329,-1.0425,-1.0481,-1.0602,0,0,0,-0.9288,-0.947,-0.9379,-0.9586,-0.9496,-0.9724,-0.9686,-0.9857,-0.9968,-0.9929,-1.0326,-1.0331,-1.0422,-1.0473,-1.0595,-1.0707,-1.0753,0,0,-0.9518,-0.9498,-0.962,-0.9544,-0.9789,-0.9691,-0.9954,-1.0056,-1.0067,-1.0244,-1.0254,-1.0435,-1.048,-1.0601,-1.1003,-1.104,0,0,0,-0.9693,-0.9781,-0.9845,-0.995,-1.0031,-1.0107,-1.0168,-1.0207,-1.0357,-1.0157,-1.0509,-1.0536,-1.0607,-1.0662,-1.0693,-1.0755,-1.0355,-1.0354,-1.0354,-1.0021,-1.0024,-1.0227,-1.0257,-1.0359,-1.0421,-1.0506,-1.0568,-1.0541,-1.0625,-1.0679,-1.0922,-1.0985,-1.1009,-1.1074,-1.0735,-1.0736,-1.0736,-1.0736,-1.0361,-1.0488,-1.0448,-1.063,-1.0634,-1.0788,-1.0855,-1.0832,-1.0978,-1.0881,-1.0944,-1.0842,-1.1048,-1.1106,-1.0745,-1.0743,-1.0742,-1.0741,-1.0741,-1.058,-1.0642,-1.0683,-1.0836,-1.0954,-1.0978,-1.1121,-1.1118,-1.1116,-1.1178,-1.1237,-1.1235,-1.1237,-1.1205,-1.1206,-1.1207,-1.1208,-1.1209,-1.1209,-1.0792,-1.0835,-1.0955,-1.1056,-1.1124,-1.1213,-1.1277,-1.1345,-1.142,-1.1407,-1.1408,-1.1376,-1.1066,-1.0991,-1.1222,-1.122,-1.1218,-1.1217,-1.1216,-1.1143,-1.1063,-1.1247,-1.1315,-1.1435,-1.1555,-1.1548,-1.1687,-1.1742,-1.1814,-1.1767,-1.1537,-1.1518,-1.1493,-1.1431,-1.1763,-1.1763,-1.1763,-1.1763,-1.133,-1.1318,-1.1507,-1.1617,-1.1723,-1.1736,-1.1949,-1.2001,-1.2042,-1.2078,-1.2029,-1.1944,-1.1919,-1.1915,-1.1881,-1.1823,-1.2248,-1.2248,-1.2249,-1.1548,-1.1546,-1.1726,-1.1763,-1.1857,-1.1939,-1.214,-1.227,-1.23,-1.2268,-1.2107,-1.2086,-1.195,-1.1905,-1.1874,-1.1821,-1.1715,0,0]},{"header":{"parameterUnit":"m.s-1","parameterCategory":1,"la1":30.2992,"la2":30.254,"lo1":-89.0895,"lo2":-89.0443,"dy":0.0025,"dx":0.0025,"nx":19,"ny":19,"refTime":"2026-05-02T03:00:00:Z","depth":0,"parameterNumber":3,"parameterNumberName":"V-component_of_WINDS"},"data":[0,0,0,-2.1332,-2.1334,-2.1431,-2.1431,-2.1564,-2.1565,0,0,0,0,0,0,0,0,0,0,0,-2.1309,-2.131,-2.1332,-2.1335,-2.1431,-2.1431,-2.1564,-2.1565,0,0,0,0,0,0,0,0,0,0,0,-2.1309,-2.131,-2.1311,-2.1335,-2.143,-2.1431,-2.1563,-2.1488,0,0,0,0,0,0,0,0,0,0,-2.1393,-2.1376,-2.131,-2.1311,-2.1336,-2.143,-2.1431,-2.1484,-2.1492,-2.1524,0,-2.1554,0,-2.1561,-2.1575,-2.1575,0,0,0,-2.1331,-2.1369,-2.139,-2.1311,-2.1337,-2.143,-2.1386,-2.1488,-2.1498,-2.1536,-2.1555,-2.156,-2.1564,-2.1575,-2.1576,-2.1772,-2.1773,0,0,-2.1326,-2.133,-2.1383,-2.1397,-2.1381,-2.1383,-2.1389,-2.1494,-2.1516,-2.1556,-2.1563,-2.1566,-2.1576,-2.1578,-2.177,-2.1772,0,0,0,-2.1313,-2.1326,-2.1344,-2.1391,-2.1408,-2.1386,-2.1393,-2.1511,-2.1517,-2.1564,-2.1567,-2.1577,-2.1579,-2.1769,-2.1771,-2.1829,0,0,0,-2.131,-2.1319,-2.1342,-2.1345,-2.1406,-2.1461,-2.1408,-2.151,-2.1521,-2.1567,-2.1577,-2.158,-2.1768,-2.177,-2.1825,-2.1856,0,0,0,-2.1301,-2.1317,-2.1333,-2.1345,-2.1387,-2.1459,-2.147,-2.1512,-2.1524,-2.1575,-2.1581,-2.1767,-2.177,-2.1821,-2.185,-2.191,0,0,0,-2.1293,-2.1383,-2.1334,-2.1435,-2.1386,-2.1493,-2.147,-2.1549,-2.16,-2.1578,-2.1768,-2.1771,-2.182,-2.1846,-2.1906,-2.1962,-2.1985,0,0,-2.1409,-2.1397,-2.1456,-2.1415,-2.1532,-2.1478,-2.1604,-2.1647,-2.1649,-2.1731,-2.1736,-2.1826,-2.185,-2.1909,-2.211,-2.2129,0,0,0,-2.1494,-2.1537,-2.1567,-2.1616,-2.165,-2.1683,-2.1706,-2.1722,-2.1791,-2.1691,-2.1862,-2.1876,-2.1911,-2.1938,-2.1954,-2.1984,-2.1783,-2.1782,-2.1782,-2.1665,-2.1661,-2.1759,-2.1767,-2.1814,-2.1837,-2.1876,-2.1901,-2.1884,-2.1925,-2.195,-2.2072,-2.2104,-2.2115,-2.2147,-2.1977,-2.1978,-2.1978,-2.1978,-2.1835,-2.1896,-2.187,-2.1956,-2.1952,-2.2024,-2.205,-2.2035,-2.2103,-2.2053,-2.2084,-2.2031,-2.2136,-2.2163,-2.1982,-2.1982,-2.1981,-2.1981,-2.198,-2.1948,-2.1977,-2.1994,-2.2063,-2.2117,-2.2121,-2.2187,-2.2181,-2.2175,-2.2205,-2.2232,-2.2231,-2.2231,-2.2218,-2.2218,-2.2219,-2.2219,-2.2219,-2.2219,-2.206,-2.2077,-2.2133,-2.2176,-2.2206,-2.2245,-2.2268,-2.2298,-2.233,-2.232,-2.232,-2.23,-2.2146,-2.2108,-2.2226,-2.2225,-2.2224,-2.2223,-2.2223,-2.2238,-2.2196,-2.2283,-2.2313,-2.2363,-2.2418,-2.2407,-2.2469,-2.2492,-2.2525,-2.2498,-2.2384,-2.2372,-2.236,-2.2329,-2.2497,-2.2497,-2.2497,-2.2497,-2.2335,-2.2327,-2.2414,-2.2463,-2.251,-2.2509,-2.2608,-2.2627,-2.264,-2.2654,-2.2628,-2.2586,-2.2573,-2.2569,-2.2552,-2.2524,-2.2738,-2.2738,-2.2738,-2.2445,-2.2441,-2.2527,-2.2538,-2.2576,-2.261,-2.2704,-2.2762,-2.2767,-2.2748,-2.2666,-2.2656,-2.2587,-2.2565,-2.2546,-2.252,-2.2467,0,0]}]]